• In Netherlands
  • List of Countries
  • For 7 days
  • Water Temperature
  • Satellite Maps
  • Weather Map
  • Weather Widgets
  • user-avatar
    Login

    Hourly Weather Liege

    Today, 17 August, Thursday

    Time Temperature Precipitation Wind Pressure Humidity
    00:00 +16°C° 0 mm 2 mps 755 mmHg 84%
    01:00 +16°C° 0 mm 2 mps 754 mmHg 84%
    02:00 +16°C° 0 mm 2 mps 754 mmHg 85%
    03:00 +16°C° 0 mm 2 mps 754 mmHg 86%
    04:00 +17°C° 0 mm 3 mps 754 mmHg 85%
    05:00 +18°C° 0 mm 3 mps 753 mmHg 84%
    06:00 +18°C° 0 mm 4 mps 753 mmHg 83%
    07:00 +20°C° 0 mm 4 mps 753 mmHg 77%
    08:00 +21°C° 0 mm 5 mps 753 mmHg 71%
    09:00 +23°C° 0 mm 6 mps 753 mmHg 65%
    10:00 +23°C° 0.2 mm 6 mps 753 mmHg 68%
    11:00 +23°C° 0.2 mm 6 mps 753 mmHg 70%
    12:00 +22°C° 0.2 mm 6 mps 753 mmHg 72%
    13:00 +22°C° 0.1 mm 6 mps 753 mmHg 74%
    14:00 +22°C° 0.1 mm 6 mps 753 mmHg 75%
    15:00 +22°C° 0.1 mm 5 mps 752 mmHg 76%
    16:00 +22°C° 0.3 mm 5 mps 752 mmHg 80%
    17:00 +21°C° 0.3 mm 4 mps 752 mmHg 83%
    18:00 +21°C° 0.3 mm 4 mps 752 mmHg 87%
    19:00 +20°C° 0.1 mm 3 mps 753 mmHg 89%
    20:00 +19°C° 0.1 mm 3 mps 753 mmHg 92%
    21:00 +19°C° 0.1 mm 3 mps 753 mmHg 94%
    22:00 +18°C° 0 mm 3 mps 753 mmHg 95%
    23:00 +18°C° 0 mm 3 mps 752 mmHg 95%

    Tomorrow, 18 August, Friday

    Time Temperature Precipitation Wind Pressure Humidity
    00:00 +18°C° 0 mm 2 mps 752 mmHg 95%
    01:00 +18°C° 0.4 mm 3 mps 752 mmHg 95%
    02:00 +19°C° 0.4 mm 3 mps 751 mmHg 95%
    03:00 +19°C° 0.4 mm 4 mps 751 mmHg 94%
    04:00 +19°C° 1.1 mm 4 mps 750 mmHg 94%
    05:00 +19°C° 1.1 mm 4 mps 750 mmHg 93%
    06:00 +20°C° 1.1 mm 5 mps 750 mmHg 92%
    07:00 +19°C° 1.6 mm 5 mps 750 mmHg 92%
    08:00 +19°C° 1.6 mm 5 mps 750 mmHg 92%
    09:00 +19°C° 1.6 mm 5 mps 750 mmHg 92%
    10:00 +20°C° 0.5 mm 5 mps 751 mmHg 87%
    11:00 +20°C° 0.5 mm 5 mps 751 mmHg 83%
    12:00 +20°C° 0.5 mm 5 mps 751 mmHg 78%
    13:00 +21°C° 0.1 mm 4 mps 751 mmHg 76%
    14:00 +21°C° 0.1 mm 4 mps 751 mmHg 74%
    15:00 +21°C° 0.1 mm 4 mps 751 mmHg 71%
    16:00 +20°C° 0.2 mm 4 mps 751 mmHg 76%
    17:00 +19°C° 0.2 mm 3 mps 751 mmHg 80%
    18:00 +18°C° 0.2 mm 3 mps 751 mmHg 85%
    19:00 +17°C° 0.1 mm 3 mps 752 mmHg 85%
    20:00 +16°C° 0.1 mm 3 mps 752 mmHg 86%
    21:00 +14°C° 0.1 mm 3 mps 753 mmHg 87%
    22:00 +14°C° 0 mm 3 mps 753 mmHg 87%
    23:00 +13°C° 0 mm 3 mps 753 mmHg 88%

    Day after tomorrow, 19 August, Saturday

    Time Temperature Precipitation Wind Pressure Humidity
    00:00 +12°C° 0 mm 4 mps 753 mmHg 88%
    01:00 +12°C° 0 mm 4 mps 754 mmHg 89%
    02:00 +11°C° 0 mm 4 mps 754 mmHg 90%
    03:00 +11°C° 0 mm 4 mps 754 mmHg 91%
    04:00 +11°C° 0 mm 4 mps 754 mmHg 91%
    05:00 +12°C° 0 mm 5 mps 755 mmHg 90%
    06:00 +12°C° 0 mm 5 mps 755 mmHg 90%
    07:00 +13°C° 0 mm 5 mps 755 mmHg 85%
    08:00 +15°C° 0 mm 5 mps 755 mmHg 80%
    09:00 +16°C° 0 mm 6 mps 756 mmHg 76%
    10:00 +17°C° 0.1 mm 6 mps 756 mmHg 72%
    11:00 +19°C° 0.1 mm 6 mps 756 mmHg 69%
    12:00 +20°C° 0.1 mm 6 mps 756 mmHg 65%
    13:00 +19°C° 0.2 mm 6 mps 756 mmHg 66%
    14:00 +19°C° 0.2 mm 5 mps 756 mmHg 66%
    15:00 +19°C° 0.2 mm 5 mps 756 mmHg 66%
    16:00 +19°C° 0.1 mm 4 mps 756 mmHg 70%
    17:00 +18°C° 0.1 mm 4 mps 756 mmHg 74%
    18:00 +17°C° 0.1 mm 3 mps 757 mmHg 77%
    19:00 +16°C° 0 mm 3 mps 757 mmHg 81%
    20:00 +14°C° 0 mm 3 mps 758 mmHg 85%
    21:00 +13°C° 0 mm 3 mps 758 mmHg 88%
    22:00 +13°C° 0 mm 3 mps 758 mmHg 90%
    23:00 +12°C° 0 mm 3 mps 758 mmHg 91%

    20 August, Sunday

    Time Temperature Precipitation Wind Pressure Humidity
    00:00 +12°C° 0 mm 3 mps 758 mmHg 92%
    01:00 +12°C° 0 mm 3 mps 759 mmHg 92%
    02:00 +11°C° 0 mm 3 mps 759 mmHg 92%
    03:00 +11°C° 0 mm 3 mps 759 mmHg 92%
    04:00 +12°C° 0 mm 3 mps 759 mmHg 92%
    05:00 +12°C° 0 mm 3 mps 759 mmHg 92%
    06:00 +12°C° 0 mm 3 mps 759 mmHg 91%
    07:00 +14°C° 0 mm 3 mps 759 mmHg 85%
    08:00 +16°C° 0 mm 3 mps 760 mmHg 78%
    09:00 +18°C° 0 mm 3 mps 760 mmHg 71%
    10:00 +19°C° 0 mm 4 mps 760 mmHg 67%
    11:00 +20°C° 0 mm 4 mps 760 mmHg 62%
    12:00 +21°C° 0 mm 4 mps 759 mmHg 58%
    13:00 +21°C° 0 mm 4 mps 759 mmHg 58%
    14:00 +22°C° 0 mm 4 mps 759 mmHg 58%
    15:00 +22°C° 0 mm 4 mps 758 mmHg 58%
    16:00 +21°C° 0 mm 3 mps 758 mmHg 64%
    17:00 +20°C° 0 mm 3 mps 758 mmHg 69%
    18:00 +20°C° 0 mm 2 mps 758 mmHg 75%
    19:00 +19°C° 0 mm 3 mps 758 mmHg 77%
    20:00 +18°C° 0 mm 3 mps 758 mmHg 79%
    21:00 +17°C° 0 mm 3 mps 758 mmHg 82%
    22:00 +17°C° 0 mm 3 mps 758 mmHg 82%
    23:00 +17°C° 0 mm 3 mps 757 mmHg 82%

    21 August, Monday

    Time Temperature Precipitation Wind Pressure Humidity
    00:00 +16°C° 0 mm 3 mps 757 mmHg 83%
    01:00 +16°C° 0 mm 3 mps 757 mmHg 83%
    02:00 +16°C° 0 mm 3 mps 757 mmHg 83%
    03:00 +16°C° 0 mm 3 mps 756 mmHg 82%
    04:00 +16°C° 0 mm 3 mps 756 mmHg 81%
    05:00 +17°C° 0 mm 3 mps 756 mmHg 80%
    06:00 +17°C° 0 mm 3 mps 756 mmHg 79%
    07:00 +19°C° 0 mm 4 mps 756 mmHg 74%
    08:00 +21°C° 0 mm 4 mps 756 mmHg 69%
    09:00 +23°C° 0 mm 5 mps 755 mmHg 64%
    10:00 +25°C° 0 mm 5 mps 755 mmHg 61%
    11:00 +26°C° 0 mm 5 mps 754 mmHg 59%
    12:00 +27°C° 0 mm 5 mps 754 mmHg 57%
    13:00 +27°C° 0 mm 5 mps 753 mmHg 57%
    14:00 +27°C° 0 mm 5 mps 753 mmHg 58%
    15:00 +27°C° 0 mm 5 mps 752 mmHg 58%
    16:00 +26°C° 0 mm 5 mps 752 mmHg 63%
    17:00 +25°C° 0 mm 4 mps 752 mmHg 68%
    18:00 +24°C° 0 mm 3 mps 751 mmHg 73%
    19:00 +22°C° 0 mm 3 mps 751 mmHg 76%
    20:00 +20°C° 0 mm 3 mps 752 mmHg 78%
    21:00 +19°C° 0 mm 3 mps 752 mmHg 81%
    22:00 +18°C° 0 mm 3 mps 752 mmHg 83%
    23:00 +17°C° 0 mm 3 mps 752 mmHg 86%

    22 August, Tuesday

    Time Temperature Precipitation Wind Pressure Humidity
    00:00 +16°C° 0 mm 3 mps 752 mmHg 88%
    01:00 +14°C° 0 mm 3 mps 752 mmHg 90%
    02:00 +13°C° 0 mm 3 mps 752 mmHg 91%
    03:00 +13°C° 0 mm 3 mps 752 mmHg 93%
    04:00 +13°C° 0 mm 3 mps 752 mmHg 91%
    05:00 +13°C° 0 mm 3 mps 752 mmHg 90%
    06:00 +13°C° 0 mm 3 mps 753 mmHg 89%
    07:00 +14°C° 0 mm 3 mps 753 mmHg 84%
    08:00 +17°C° 0 mm 4 mps 753 mmHg 80%
    09:00 +18°C° 0 mm 4 mps 753 mmHg 76%
    10:00 +19°C° 0.1 mm 4 mps 753 mmHg 74%
    11:00 +19°C° 0.1 mm 4 mps 754 mmHg 73%
    12:00 +20°C° 0.1 mm 4 mps 754 mmHg 72%
    13:00 +20°C° 0.2 mm 5 mps 754 mmHg 73%
    14:00 +20°C° 0.2 mm 5 mps 754 mmHg 74%
    15:00 +20°C° 0.2 mm 5 mps 754 mmHg 75%
    16:00 +19°C° 0.2 mm 5 mps 754 mmHg 78%
    17:00 +18°C° 0.2 mm 4 mps 755 mmHg 81%
    18:00 +17°C° 0.2 mm 4 mps 755 mmHg 84%
    19:00 +15°C° 0.1 mm 4 mps 756 mmHg 85%
    20:00 +14°C° 0.1 mm 3 mps 756 mmHg 86%
    21:00 +13°C° 0.1 mm 3 mps 757 mmHg 87%
    22:00 +12°C° 0 mm 3 mps 757 mmHg 88%
    23:00 +13°C° 0 mm 2 mps 757 mmHg 88%
    Show more